Hoquiam, WA

12:00 AM PDT on August 27, 2016 (GMT -0700)
Bowerman

Weather History for KHQM - August, 2012

Change the Weather History Date:

Friday, August 17, 2012

  Actual Average Record
Temperature  
Mean Temperature 59 °F 61 °F  
Max Temperature 64 °F 68 °F 78 °F (1977)
Min Temperature 55 °F 54 °F 44 °F (1955)
Degree Days  
Heating Degree Days 6 4  
Month to date heating degree days 68  
Since 1 June heating degree days 478  
Cooling Degree Days 0 0  
Month to date cooling degree days 0  
Year to date cooling degree days 9  
Since 1 June cooling degree days 8  
Growing Degree Days 9 (Base 50)    
Moisture  
Dew Point 56 °F    
Average Humidity 93    
Maximum Humidity 100    
Minimum Humidity 77    
Precipitation  
Precipitation 0.00 in 0.05 in 0.36 in (1980)
Month to date precipitation 0.55  
Year to date precipitation 36.85  
Sea Level Pressure  
Sea Level Pressure 30.00 in    
Wind  
Wind Speed 6 mph (SW)    
Max Wind Speed 13 mph    
Max Gust Speed -    
Visibility 6 miles    
Events Fog    
T = Trace of Precipitation, MM = Missing Value Source: NWS Daily Summary

Daily Weather History Graph

Daily Weather History Graph

Search for Another Location

Airport or City:

Trip Planner

Search our weather history database for the weather conditions in past years. The results will help you decide how hot, cold, wet, or windy it might be!

Date:

Astronomy

Aug. 17, 2012 Rise Set
Actual Time 6:16 AM PDT 8:21 PM PDT
Civil Twilight 5:43 AM PDT 8:54 PM PDT
Nautical Twilight 5:02 AM PDT 9:35 PM PDT
Astronomical Twilight 4:16 AM PDT 10:20 PM PDT
Moon 6:29 AM PDT (8/17) 8:01 PM PDT (8/17)
Length of Visible Light 15h 11m
Length of Day
14h 05m
New Moon, 0% of the Moon is Illuminated
Aug 17
New Moon
Aug 24
First Quarter
Aug 31
Full
Sep 8
Last Quarter
Sep 15
New

Hourly Weather History & Observations

Time (PDT) Temp. Dew Point Humidity Pressure Visibility Wind Dir Wind Speed Gust Speed Precip Events Conditions
12:04 AM 57.2 °F 55.4 °F 94% 29.96 in 2.0 mi WSW 4.6 mph - N/A   Overcast
12:11 AM 57.2 °F 55.4 °F 94% 29.97 in 1.0 mi West 4.6 mph - N/A   Overcast
12:26 AM 57.2 °F 55.4 °F 94% 29.97 in 0.8 mi West 5.8 mph - N/A   Mist
12:53 AM 57.0 °F 55.9 °F 96% 29.99 in 0.5 mi WSW 4.6 mph - N/A Fog Fog
1:53 AM 55.9 °F 55.9 °F 100% 29.99 in 0.8 mi WSW 5.8 mph - N/A   Mist
2:07 AM 55.4 °F 55.4 °F 100% 29.97 in 1.0 mi WSW 3.5 mph - N/A   Overcast
2:33 AM 57.2 °F 55.4 °F 94% 29.97 in 3.0 mi WSW 4.6 mph - N/A   Overcast
2:53 AM 57.0 °F 55.9 °F 96% 29.99 in 7.0 mi WSW 5.8 mph - N/A   Overcast
3:15 AM 55.4 °F 55.4 °F 100% 29.98 in 2.0 mi WSW 4.6 mph - N/A   Overcast
3:32 AM 55.4 °F 55.4 °F 100% 29.98 in 1.8 mi WSW 4.6 mph - N/A   Overcast
3:50 AM 55.4 °F 55.4 °F 100% 29.98 in 2.0 mi SW 4.6 mph - N/A   Overcast
3:53 AM 55.9 °F 55.9 °F 100% 29.99 in 2.5 mi SW 3.5 mph - N/A   Overcast
4:23 AM 55.4 °F 55.4 °F 100% 29.98 in 3.0 mi West 3.5 mph - N/A   Overcast
4:53 AM 57.0 °F 55.9 °F 96% 29.99 in 6.0 mi South 4.6 mph - N/A   Overcast
5:53 AM 55.9 °F 55.9 °F 100% 29.99 in 5.0 mi Calm Calm - N/A   Overcast
6:53 AM 55.9 °F 55.9 °F 100% 30.00 in 5.0 mi South 4.6 mph - N/A   Overcast
7:53 AM 55.4 °F 55.4 °F 100% 30.00 in 8.0 mi Calm Calm - N/A   Overcast
8:53 AM 55.9 °F 55.0 °F 97% 30.02 in 8.0 mi WSW 3.5 mph - N/A   Overcast
9:53 AM 57.0 °F 55.0 °F 93% 30.03 in 10.0 mi SW 4.6 mph - N/A   Overcast
10:53 AM 57.9 °F 55.0 °F 90% 30.03 in 10.0 mi Calm Calm - N/A   Overcast
11:53 AM 60.1 °F 55.9 °F 86% 30.03 in 10.0 mi West 5.8 mph - N/A   Overcast
12:44 PM 62.6 °F 57.2 °F 82% 30.01 in 10.0 mi SW 6.9 mph - N/A   Scattered Clouds
12:53 PM 63.0 °F 57.0 °F 81% 30.02 in 10.0 mi West 8.1 mph - N/A   Partly Cloudy
1:53 PM 62.1 °F 55.0 °F 78% 30.02 in 10.0 mi WSW 11.5 mph - N/A   Mostly Cloudy
2:10 PM 62.6 °F 55.4 °F 77% 30.01 in 10.0 mi WSW 12.7 mph - N/A   Scattered Clouds
2:53 PM 60.1 °F 55.0 °F 83% 30.02 in 10.0 mi WSW 12.7 mph - N/A   Clear
3:25 PM 60.8 °F 55.4 °F 82% 30.01 in 10.0 mi WSW 11.5 mph - N/A   Scattered Clouds
3:35 PM 60.8 °F 55.4 °F 82% 30.01 in 10.0 mi WSW 12.7 mph - N/A   Mostly Cloudy
3:53 PM 60.1 °F 55.9 °F 86% 30.02 in 10.0 mi WSW 11.5 mph - N/A   Overcast
4:16 PM 60.8 °F 55.4 °F 82% 30.00 in 10.0 mi SW 12.7 mph - N/A   Overcast
4:53 PM 60.1 °F 57.0 °F 90% 30.01 in 10.0 mi WSW 10.4 mph - N/A   Overcast
5:53 PM 60.1 °F 57.0 °F 90% 30.00 in 6.0 mi SW 10.4 mph - N/A   Overcast
6:53 PM 60.1 °F 57.9 °F 93% 30.00 in 7.0 mi SW 9.2 mph - N/A   Overcast
7:26 PM 59.0 °F 57.2 °F 94% 29.98 in 2.5 mi SW 8.1 mph - N/A   Overcast
7:37 PM 60.8 °F 59.0 °F 94% 29.98 in 3.0 mi SW 8.1 mph - N/A   Overcast
7:53 PM 60.1 °F 59.0 °F 96% 30.00 in 3.0 mi SW 8.1 mph - N/A   Overcast
8:53 PM 59.0 °F 59.0 °F 100% 30.00 in 4.0 mi SSW 8.1 mph - N/A   Overcast
9:53 PM 59.0 °F 57.9 °F 96% 30.01 in 5.0 mi SSW 9.2 mph - N/A   Overcast
10:53 PM 59.0 °F 57.9 °F 96% 30.01 in 7.0 mi SSW 8.1 mph - N/A   Overcast
11:53 PM 59.0 °F 57.9 °F 96% 30.02 in 7.0 mi South 6.9 mph - N/A   Overcast